FW8496 Weather Reports


Display with metric or nautical units.
time (UTC)temp
F
wind
direction
speed
MPH
gust
MPH
rain 1hr
in
rain 24hr
in
rain mn
in
humidity
%
barometer
mb
20260506172544 56 230 8.0 16.0 0.00 0.09 0.01 47 1015.1
20260506172044 56 267 8.0 17.0 0.00 0.09 0.01 48 1015.1
20260506171552 55 182 7.0 17.0 0.00 0.09 0.01 49 1015.1
20260506171044 55 281 8.0 17.0 0.00 0.09 0.01 48 1015.1
20260506170542 55 183 7.0 14.0 0.00 0.09 0.01 49 1015.1
20260506170107 55 256 7.0 15.0 0.00 0.09 0.01 48 1015.2
20260506165545 55 225 7.0 15.0 0.00 0.09 0.01 50 1015.0
20260506165046 54 221 7.0 13.0 0.00 0.09 0.01 50 1014.8
20260506164549 53 174 3.0 11.0 0.00 0.09 0.01 53 1014.9
20260506164041 52 201 6.0 11.0 0.00 0.09 0.01 53 1014.9
20260506163541 52 199 6.0 12.0 0.00 0.09 0.01 53 1014.8
20260506163104 52 194 5.0 13.0 0.00 0.09 0.01 54 1015.0
20260506162541 52 229 7.0 13.0 0.00 0.09 0.01 54 1015.1
20260506162041 52 189 8.0 13.0 0.00 0.09 0.01 54 1015.1
20260506161547 52 192 4.0 10.0 0.00 0.09 0.01 57 1015.1
20260506161041 51 193 4.0 10.0 0.00 0.09 0.01 58 1015.1
20260506160541 50 209 5.0 12.0 0.00 0.09 0.01 60 1015.1
20260506160051 49 210 5.0 12.0 0.00 0.09 0.01 62 1015.1
20260506155541 49 240 3.0 12.0 0.00 0.09 0.01 63 1015.1
20260506155041 48 221 5.0 13.0 0.00 0.09 0.01 64 1015.2
20260506154551 48 205 7.0 13.0 0.00 0.09 0.01 63 1015.2
20260506154042 47 234 4.0 12.0 0.00 0.09 0.01 68 1015.1
20260506153542 47 220 5.0 17.0 0.00 0.09 0.01 67 1015.2
20260506153050 47 233 7.0 17.0 0.00 0.09 0.01 68 1015.3
20260506152542 46 200 5.0 16.0 0.00 0.09 0.01 69 1015.3
20260506152042 46 209 6.0 16.0 0.00 0.09 0.01 70 1015.4
20260506151552 45 227 6.0 12.0 0.00 0.09 0.01 70 1015.4
20260506151046 45 229 6.0 12.0 0.00 0.09 0.01 71 1015.3
20260506150542 45 201 7.0 13.0 0.00 0.09 0.01 71 1015.3
20260506150047 44 223 5.0 13.0 0.00 0.09 0.01 72 1015.4
20260506145544 44 200 5.0 13.0 0.00 0.09 0.01 72 1015.3
20260506145044 43 192 7.0 13.0 0.00 0.09 0.01 72 1015.3
20260506144601 43 191 6.0 13.0 0.00 0.09 0.01 75 1015.3
20260506144041 43 242 6.0 13.0 0.00 0.09 0.01 75 1015.3
20260506143542 42 236 6.0 12.0 0.00 0.09 0.01 78 1015.2
20260506143045 41 206 5.0 12.0 0.00 0.09 0.01 79 1015.1
20260506142541 40 204 5.0 9.0 0.00 0.09 0.01 82 1015.1
20260506142041 39 183 4.0 8.0 0.00 0.09 0.01 84 1015.1
20260506141550 39 221 3.0 8.0 0.00 0.09 0.01 84 1015.1
20260506141042 38 207 2.0 8.0 0.00 0.09 0.01 84 1015.2
20260506140542 38 211 4.0 8.0 0.00 0.09 0.01 86 1015.2
20260506140048 38 206 2.0 6.0 0.00 0.09 0.01 87 1015.3
20260506135541 38 226 1.0 6.0 0.00 0.09 0.01 88 1015.2
20260506135041 37 169 2.0 6.0 0.00 0.09 0.01 88 1015.2
20260506134553 37 144 1.0 5.0 0.00 0.09 0.01 88 1015.2
20260506134041 37 193 1.0 4.0 0.00 0.09 0.01 88 1015.1
20260506133540 37 140 1.0 4.0 0.00 0.09 0.01 88 1015.1
20260506133053 36 140 2.0 4.0 0.00 0.09 0.01 88 1015.1
20260506132541 36 140 1.0 5.0 0.00 0.09 0.01 88 1015.0
20260506132046 36 140 2.0 5.0 0.00 0.09 0.01 88 1014.8
20260506131549 36 139 2.0 6.0 0.00 0.09 0.01 88 1014.9
20260506131041 35 251 2.0 6.0 0.00 0.09 0.01 88 1014.8
20260506130542 35 157 1.0 5.0 0.00 0.09 0.01 87 1014.7
20260506130050 35 170 2.0 6.0 0.00 0.09 0.01 87 1014.8
20260506125543 35 147 2.0 6.0 0.00 0.09 0.01 87 1014.7
20260506125041 35 170 2.0 6.0 0.00 0.09 0.01 86 1014.7
20260506124549 35 161 4.0 6.0 0.00 0.09 0.01 86 1014.6
20260506124042 35 149 1.0 4.0 0.00 0.09 0.01 86 1014.5
20260506123541 35 150 1.0 5.0 0.00 0.09 0.01 86 1014.6
20260506123049 35 150 1.0 6.0 0.00 0.09 0.01 86 1014.6
20260506122543 35 150 2.0 6.0 0.00 0.09 0.01 85 1014.4
20260506122041 35 150 2.0 5.0 0.00 0.09 0.01 85 1014.4
20260506121556 36 130 2.0 4.0 0.00 0.09 0.01 85 1014.2
20260506121041 36 189 1.0 4.0 0.00 0.09 0.01 84 1014.4
20260506120542 36 189 1.0 7.0 0.00 0.09 0.01 84 1014.4
20260506120050 36 189 2.0 9.0 0.00 0.09 0.01 83 1014.3
20260506115541 36 210 4.0 9.0 0.00 0.09 0.01 83 1014.1
20260506115041 36 254 3.0 9.0 0.00 0.09 0.01 83 1013.8
20260506114552 36 273 3.0 10.0 0.00 0.09 0.01 83 1013.9
20260506114041 36 259 4.0 10.0 0.00 0.09 0.01 83 1013.9
20260506113541 36 250 4.0 8.0 0.00 0.09 0.01 83 1013.9
20260506113056 36 244 3.0 9.0 0.00 0.09 0.01 83 1013.9
20260506112542 36 265 4.0 9.0 0.00 0.09 0.01 83 1013.8
20260506112041 36 240 4.0 10.0 0.00 0.09 0.01 83 1013.7
20260506111550 36 226 4.0 10.0 0.00 0.09 0.01 83 1013.7
20260506111042 36 224 5.0 9.0 0.00 0.09 0.01 82 1013.7
20260506110545 36 207 3.0 8.0 0.00 0.09 0.01 82 1013.8
20260506110054 36 228 3.0 7.0 0.00 0.09 0.01 82 1013.9
20260506105542 36 232 3.0 7.0 0.00 0.09 0.01 83 1014.0
20260506105042 36 234 2.0 6.0 0.00 0.09 0.01 83 1014.0
20260506104550 36 242 3.0 8.0 0.00 0.09 0.01 82 1013.9
20260506104041 36 242 3.0 8.0 0.00 0.09 0.01 83 1014.0
20260506103542 36 250 3.0 8.0 0.00 0.09 0.01 83 1013.9
20260506103055 36 242 2.0 4.0 0.00 0.09 0.01 83 1013.9
20260506102542 36 229 1.0 8.0 0.00 0.09 0.01 83 1014.0
20260506102041 36 223 3.0 8.0 0.00 0.09 0.01 83 1014.0
20260506101552 36 222 1.0 5.0 0.00 0.09 0.01 83 1014.0
20260506101042 36 274 1.0 5.0 0.00 0.09 0.01 84 1014.0
20260506100542 36 229 2.0 5.0 0.00 0.09 0.01 84 1014.0
20260506100049 37 240 1.0 4.0 0.00 0.09 0.01 84 1014.1
20260506095542 37 240 1.0 3.0 0.00 0.09 0.01 85 1014.1
20260506095042 37 240 0.0 8.0 0.00 0.09 0.01 85 1014.1
20260506094547 37 240 2.0 8.0 0.00 0.09 0.01 85 1014.1
20260506094041 37 234 2.0 6.0 0.00 0.09 0.01 86 1014.1
20260506093543 37 227 1.0 5.0 0.00 0.09 0.01 87 1014.0
20260506093049 37 205 1.0 8.0 0.01 0.09 0.01 87 1014.1
20260506092543 37 193 3.0 8.0 0.01 0.09 0.01 88 1014.0
20260506092043 36 236 3.0 6.0 0.01 0.09 0.01 88 1014.0
20260506091549 36 184 2.0 6.0 0.01 0.09 0.01 88 1014.0
20260506091043 37 148 2.0 3.0 0.01 0.09 0.01 88 1014.0
20260506090543 37 148 1.0 3.0 0.01 0.09 0.01 89 1013.9
20260506090056 37 148 2.0 3.0 0.01 0.09 0.01 89 1014.0
20260506085543 37 148 1.0 5.0 0.01 0.09 0.01 89 1014.0
20260506085043 37 148 1.0 5.0 0.01 0.09 0.01 89 1013.9
20260506084609 37 148 1.0 3.0 0.01 0.09 0.01 89 1013.8
20260506084043 37 0 1.0 3.0 0.01 0.09 0.01 88 1013.8
20260506083543 37 148 1.0 3.0 0.01 0.09 0.01 88 1013.8
20260506083047 37 148 1.0 5.0 0.00 0.08 0.00 88 1013.8
20260506082544 37 0 1.0 6.0 0.00 0.08 0.00 88 1013.9
20260506082042 37 148 1.0 6.0 0.00 0.08 0.00 88 1013.8
20260506081549 38 148 2.0 8.0 0.00 0.08 0.00 88 1013.8
20260506081043 38 157 3.0 9.0 0.00 0.08 0.00 88 1014.0
20260506080545 38 178 3.0 9.0 0.00 0.08 0.00 88 1014.0
20260506073058 38 180 2.0 5.0 0.00 0.08 0.00 88 1014.4
20260506072542 39 180 1.0 5.0 0.00 0.08 0.00 88 1014.4
20260506072043 39 180 1.0 4.0 0.00 0.08 0.00 87 1014.4
20260506071553 39 180 2.0 4.0 0.00 0.08 0.00 87 1014.3
20260506071042 39 180 1.0 4.0 0.00 0.08 0.00 88 1014.3
20260506070545 39 180 2.0 7.0 0.00 0.08 0.00 87 1014.2
20260506062041 40 132 1.0 3.0 0.00 0.08 0.00 87 1014.2
20260506061557 40 132 0.0 3.0 0.00 0.08 0.00 87 1014.1
20260506061041 40 0 0.0 3.0 0.00 0.08 0.00 87 1014.1
20260506060543 40 132 1.0 4.0 0.00 0.08 0.00 87 1014.1
20260506051045 41 203 1.0 8.0 0.01 0.08 0.08 87 1014.8
20260506050541 41 237 3.0 8.0 0.01 0.08 0.08 87 1014.9
20260506050106 41 246 2.0 13.0 0.01 0.08 0.08 88 1014.9
20260506045042 41 261 5.0 11.0 0.01 0.08 0.08 88 1015.1
20260506044552 41 213 3.0 7.0 0.00 0.07 0.07 89 1014.8
20260506044041 41 149 2.0 5.0 0.00 0.07 0.07 89 1014.7
20260506043542 41 0 0.0 8.0 0.00 0.07 0.07 89 1014.8
20260506043055 41 89 2.0 8.0 0.00 0.07 0.07 89 1014.2
20260506042543 41 83 5.0 8.0 0.00 0.07 0.07 89 1013.8
20260506042041 41 80 3.0 8.0 0.00 0.07 0.07 88 1013.7
20260506041554 41 85 4.0 8.0 0.00 0.07 0.07 88 1013.5
20260506041041 41 78 4.0 8.0 0.00 0.07 0.07 88 1013.7
20260506040541 41 76 4.0 8.0 0.02 0.07 0.07 88 1013.7
20260506040051 41 96 4.0 7.0 0.02 0.07 0.07 88 1013.7
20260506035541 40 70 3.0 5.0 0.03 0.07 0.07 88 1013.7
20260506035042 41 61 3.0 5.0 0.04 0.07 0.07 88 1013.6
20260506034550 41 5 2.0 8.0 0.05 0.07 0.07 87 1013.7
20260506034043 41 345 4.0 9.0 0.06 0.07 0.07 87 1014.0
20260506033542 41 328 4.0 9.0 0.07 0.07 0.07 87 1014.0
20260506033049 41 333 5.0 12.0 0.07 0.07 0.07 87 1014.0
20260506032543 42 314 4.0 13.0 0.07 0.07 0.07 86 1014.1
20260506032042 42 316 6.0 19.0 0.07 0.07 0.07 86 1014.1
20260506031550 42 306 8.0 19.0 0.07 0.07 0.07 86 1014.1
20260506031045 43 311 9.0 19.0 0.06 0.06 0.06 85 1014.2
20260506030542 43 298 9.0 18.0 0.05 0.05 0.05 84 1014.1
20260506030055 43 309 7.0 15.0 0.05 0.05 0.05 83 1014.0
20260506025541 44 325 5.0 17.0 0.04 0.04 0.04 82 1013.9
20260506025041 44 305 6.0 18.0 0.03 0.03 0.03 81 1013.8
20260506024557 45 352 9.0 18.0 0.02 0.02 0.02 80 1014.0
20260506024041 45 289 6.0 10.0 0.01 0.01 0.01 81 1013.3
20260506023543 45 319 5.0 8.0 0.00 0.00 0.00 80 1012.7
20260506023050 45 341 2.0 8.0 0.00 0.00 0.00 79 1012.4
20260506022541 45 22 3.0 8.0 0.00 0.00 0.00 78 1012.2
20260506022042 45 347 4.0 8.0 0.00 0.00 0.00 77 1012.0
20260506021558 45 9 3.0 5.0 0.00 0.00 0.00 78 1011.9
20260506021042 45 39 3.0 5.0 0.00 0.00 0.00 78 1012.0
20260506020541 45 17 2.0 4.0 0.00 0.00 0.00 78 1012.1
20260506020049 46 344 2.0 6.0 0.00 0.00 0.00 77 1012.0
20260506015543 46 344 2.0 6.0 0.00 0.00 0.00 76 1011.9
20260506015042 46 360 3.0 13.0 0.00 0.00 0.00 74 1011.5
20260506014550 47 313 5.0 13.0 0.00 0.00 0.00 73 1011.6
20260506014044 48 306 7.0 25.0 0.00 0.00 0.00 71 1011.5
20260506013541 49 292 11.0 25.0 0.00 0.00 0.00 69 1012.0
20260506013056 52 285 15.0 24.0 0.00 0.00 0.00 62 1012.0
20260506012541 55 281 6.0 18.0 0.00 0.00 0.00 50 1012.0
20260506012044 55 323 9.0 18.0 0.00 0.00 0.00 47 1011.5
20260506011559 56 299 5.0 10.0 0.00 0.00 0.00 44 1010.9
20260506011041 56 271 4.0 10.0 0.00 0.00 0.00 45 1010.6
20260506010542 56 250 4.0 10.0 0.00 0.00 0.00 44 1010.4
20260506010045 56 254 5.0 11.0 0.00 0.00 0.00 44 1010.4
20260506005541 57 237 1.0 11.0 0.00 0.00 0.00 44 1010.4
20260506005041 57 226 6.0 15.0 0.00 0.00 0.00 43 1010.4
20260506004556 58 239 6.0 15.0 0.00 0.00 0.00 42 1010.5
20260506004041 58 248 6.0 14.0 0.00 0.00 0.00 42 1010.4
20260506003541 59 238 7.0 14.0 0.00 0.00 0.00 41 1010.4
20260506003048 59 248 6.0 17.0 0.00 0.00 0.00 41 1010.5
20260506002541 59 198 9.0 17.0 0.00 0.00 0.00 41 1010.4
20260506002041 60 207 8.0 18.0 0.00 0.00 0.00 41 1010.4
20260506001551 60 273 9.0 18.0 0.00 0.00 0.00 40 1010.4
20260506001044 60 229 10.0 19.0 0.00 0.00 0.00 39 1010.4
20260506000542 60 227 7.0 19.0 0.00 0.00 0.00 40 1010.2
20260506000050 60 229 8.0 21.0 0.00 0.00 0.00 40 1010.3
20260505235541 59 256 10.0 21.0 0.00 0.00 0.00 38 1010.2
20260505235042 59 228 12.0 20.0 0.00 0.00 0.00 39 1010.2
20260505234553 59 257 10.0 18.0 0.00 0.00 0.00 43 1010.2
20260505234040 58 238 10.0 20.0 0.00 0.00 0.00 43 1010.2
20260505233542 58 244 10.0 23.0 0.00 0.00 0.00 43 1010.0
20260505233051 60 253 13.0 23.0 0.00 0.00 0.00 41 1010.2
20260505232541 61 234 11.0 23.0 0.00 0.00 0.00 40 1010.1
20260505232043 60 254 11.0 25.0 0.00 0.00 0.00 41 1010.2
20260505231603 59 236 10.0 25.0 0.00 0.00 0.00 42 1010.2
20260505231043 59 253 14.0 24.0 0.00 0.00 0.00 41 1010.2
20260505230541 59 263 9.0 22.0 0.00 0.00 0.00 40 1010.2
20260505230051 59 216 10.0 21.0 0.00 0.00 0.00 41 1010.0
20260505225542 59 229 10.0 21.0 0.00 0.00 0.00 41 1009.9
20260505225041 59 205 9.0 20.0 0.00 0.00 0.00 41 1010.0
20260505224550 60 201 10.0 20.0 0.00 0.00 0.00 41 1010.0
20260505224045 60 229 11.0 22.0 0.00 0.00 0.00 41 1010.0
20260505223541 60 223 11.0 22.0 0.00 0.00 0.00 40 1010.0
20260505223047 61 181 10.0 20.0 0.00 0.00 0.00 40 1010.2
20260505222541 61 236 9.0 18.0 0.00 0.00 0.00 39 1010.2
20260505222046 61 237 9.0 18.0 0.00 0.00 0.00 39 1010.2
20260505221558 62 211 9.0 20.0 0.00 0.00 0.00 37 1010.2
20260505221042 63 244 11.0 20.0 0.00 0.00 0.00 36 1010.2
20260505220541 64 195 10.0 22.0 0.00 0.00 0.00 36 1010.2
20260505220052 65 219 6.0 22.0 0.00 0.00 0.00 35 1010.2
20260505215544 66 190 8.0 22.0 0.00 0.00 0.00 34 1010.2
20260505215041 66 198 7.0 17.0 0.00 0.00 0.00 35 1010.4
20260505214603 66 337 10.0 17.0 0.00 0.00 0.00 35 1010.4
20260505214040 66 259 7.0 16.0 0.00 0.00 0.00 35 1010.4
20260505213543 66 226 9.0 16.0 0.00 0.00 0.00 35 1010.6
20260505213042 65 227 5.0 15.0 0.00 0.00 0.00 35 1010.7
20260505212541 65 229 5.0 14.0 0.00 0.00 0.00 36 1010.7
20260505212043 64 267 4.0 14.0 0.00 0.00 0.00 37 1010.8
20260505211549 63 261 8.0 17.0 0.00 0.00 0.00 38 1010.9
20260505211042 63 222 8.0 18.0 0.00 0.00 0.00 39 1011.0
20260505210542 62 265 9.0 18.0 0.00 0.00 0.00 39 1011.1
20260505210050 62 227 10.0 18.0 0.00 0.00 0.00 39 1011.3
20260505205542 62 234 7.0 16.0 0.00 0.00 0.00 39 1011.2
20260505205042 63 238 9.0 19.0 0.00 0.00 0.00 39 1011.4
20260505204549 62 204 10.0 19.0 0.00 0.00 0.00 40 1011.6
20260505204042 62 190 10.0 16.0 0.00 0.00 0.00 41 1011.6
20260505203541 61 232 8.0 15.0 0.00 0.00 0.00 41 1011.8
20260505203054 60 236 7.0 16.0 0.00 0.00 0.00 42 1011.8
20260505202541 60 213 7.0 16.0 0.00 0.00 0.00 42 1012.1
20260505202041 60 275 8.0 16.0 0.00 0.00 0.00 44 1012.0
20260505201554 60 248 7.0 16.0 0.00 0.00 0.00 44 1012.0
20260505201041 59 300 8.0 15.0 0.00 0.00 0.00 46 1011.9
20260505200542 57 298 5.0 13.0 0.00 0.00 0.00 48 1012.0
20260505200057 56 242 7.0 16.0 0.00 0.00 0.00 49 1012.1
20260505195541 55 254 9.0 19.0 0.00 0.00 0.00 52 1012.2
20260505195041 55 254 10.0 19.0 0.00 0.00 0.00 54 1012.1
20260505194549 55 267 8.0 18.0 0.00 0.00 0.00 52 1012.0
20260505194041 56 253 9.0 20.0 0.00 0.00 0.00 50 1012.0
20260505193541 56 257 8.0 20.0 0.00 0.00 0.00 48 1012.0
20260505193045 56 267 10.0 18.0 0.00 0.00 0.00 49 1011.9
20260505192541 55 255 9.0 14.0 0.00 0.00 0.00 52 1011.9
20260505192041 55 217 8.0 14.0 0.00 0.00 0.00 52 1012.0
20260505191550 55 273 8.0 14.0 0.00 0.00 0.00 54 1012.0
20260505191040 54 286 8.0 15.0 0.00 0.00 0.00 54 1012.0
20260505190541 55 270 9.0 20.0 0.00 0.00 0.00 57 1012.1
20260505190048 55 285 7.0 21.0 0.00 0.00 0.00 57 1012.1
20260505185541 57 255 10.0 21.0 0.00 0.00 0.00 51 1012.1
20260505185041 58 200 9.0 18.0 0.00 0.00 0.00 45 1012.0
20260505184548 59 217 7.0 16.0 0.00 0.00 0.00 39 1011.7
20260505184042 60 238 8.0 19.0 0.00 0.00 0.00 38 1011.7
20260505183540 60 164 9.0 19.0 0.00 0.00 0.00 37 1011.7
20260505183104 60 251 6.0 14.0 0.00 0.00 0.00 36 1011.7
20260505182541 61 198 7.0 14.0 0.00 0.00 0.00 35 1011.8
20260505182043 61 170 5.0 12.0 0.00 0.00 0.00 34 1011.7
20260505181550 62 158 7.0 14.0 0.00 0.00 0.00 33 1011.7
20260505181046 62 190 5.0 14.0 0.00 0.00 0.00 33 1011.6
20260505180543 62 159 8.0 12.0 0.00 0.00 0.00 32 1011.7
20260505180052 62 194 4.0 9.0 0.00 0.00 0.00 32 1011.6
20260505175543 62 173 4.0 9.0 0.00 0.00 0.00 33 1011.7
20260505175043 62 0 4.0 10.0 0.00 0.00 0.00 34 1011.7
20260505174559 61 197 5.0 10.0 0.00 0.00 0.00 34 1011.8
20260505174044 61 190 2.0 10.0 0.00 0.00 0.00 34 1012.1
20260505173543 61 254 4.0 10.0 0.00 0.00 0.00 33 1012.2
20260505173054 61 226 5.0 9.0 0.00 0.00 0.00 34 1012.1